Regional Weather Roundup
Issued by NWS

Home | Current Version | Previous Version | Text Only | Print | Product List | Glossary Off
Versions: 1 2 3 4 5 6 7 8 9 10 11 12 13 14 15 16 17 18 19 20 21 22 23 24 25 26 27 28 29 30 31 32 33 34 35 36 37 38 39 40 41 42 43 44 45 46 47 48 49 50

000
ASUS43 KBIS 032310
RWRND

NORTH DAKOTA REGIONAL WEATHER ROUNDUP
NATIONAL WEATHER SERVICE BISMARCK ND
600 PM CDT THU SEP 03 2015

NOTE: "FAIR" INDICATES FEW OR NO CLOUDS BELOW 12,000 FEET WITH NO
SIGNIFICANT WEATHER AND/OR OBSTRUCTIONS TO VISIBILITY.


NDZ001>003-009>011-017-040000-
NORTHWEST NORTH DAKOTA

CITY           SKY/WX    TMP DP  RH WIND       PRES   REMARKS
WILLISTON      MOSUNNY   86  50  28 N14       29.72S
MINOT          MOSUNNY   90  68  48 N10       29.64R HX  94
$$

NDZ018>021-031>035-040>046-040000-
SOUTHWEST NORTH DAKOTA

CITY           SKY/WX    TMP DP  RH WIND       PRES   REMARKS
BISMARCK       PTSUNNY   99  60  27 S17       29.64S HX  99
DICKINSON      SUNNY     90  54  29 N6        29.70F
GARRISON         N/A     94  55  26 W8        29.64F HX  92
HETTINGER ARPT PTSUNNY   91  47  21 W8        29.72F
$$

NDZ004>008-012>016-024-026-027-054-040000-
NORTHEAST NORTH DAKOTA

CITY           SKY/WX    TMP DP  RH WIND       PRES   REMARKS
GRAND FORKS    MOSUNNY   91  72  53 SE20G28   29.69S HX  98
GRND FRKS AFB  SUNNY     89  70  52 S16       29.69S HX  94
DEVILS LAKE    MOSUNNY   93  66  40 SE16      29.65S HX  96
$$

NDZ022-023-025-028>030-036>039-047>053-040000-
SOUTHEAST NORTH DAKOTA

CITY           SKY/WX    TMP DP  RH WIND       PRES   REMARKS
FARGO          SUNNY     91  72  53 SE16G26   29.73S HX  98
JAMESTOWN      SUNNY     93  64  38 S14       29.69F HX  94
$$



USA.gov is the U.S. government's official web portal to all federal, state and local government web resources and services.